Regional Weather Roundup
Issued by NWS Green Bay, WI

Home | Current Version | Previous Version | Graphics & Text | Print | Product List | Glossary Off
Versions: 1 2 3 4 5 6 7 8 9 10 11 12 13 14 15 16 17 18 19 20 21 22 23 24 25 26 27 28 29 30 31 32 33 34 35 36 37 38 39 40 41 42 43 44 45 46 47 48 49 50

000
ASUS43 KGRB 291000
RWRGRB

NORTH-CENTRAL AND NORTHEAST WISCONSIN REGIONAL WEATHER ROUNDUP
NATIONAL WEATHER SERVICE GREEN BAY WI
500 AM CDT SAT AUG 29 2015

WIZ005-009-010>012-018-019-291100-
NORTH CENTRAL WISCONSIN

CITY           SKY/WX    TMP DP  RH WIND       PRES   REMARKS
IRONWOOD       MOCLDY    57  55  94 W9        30.05S
MANITOWISH WTR NOT AVBL
ARBOR VITAE    NOT AVBL
EAGLE RIVER    NOT AVBL
LAND O LAKES   NOT AVBL
RHINELANDER    PTCLDY    53  52  96 CALM      30.11R
PHILLIPS       PTCLDY    52  52 100 CALM      30.09S
ANTIGO         NOT AVBL
TOMAHAWK       NOT AVBL
MERRILL        CLOUDY    54  54 100 NE7       30.11R
$$

WIZ013-073-291100-
NORTHEAST WISCONSIN

CITY           SKY/WX    TMP DP  RH WIND       PRES   REMARKS
IRON MOUNTAIN  MOCLDY    57  55  93 S6        30.07F
MARINETTE      CLOUDY    57  52  82 SW5       30.08S
$$

WIZ017-030-035>037-045-291100-
CENTRAL WISCONSIN

CITY           SKY/WX    TMP DP  RH WIND       PRES   REMARKS
MEDFORD        NOT AVBL
WAUSAU         CLOUDY    57  55  93 E5        30.06R
MOSINEE        NOT AVBL
MARSHFIELD     CLOUDY    58  55  90 E5        30.05S
WISC RAPIDS    CLOUDY    59  56  89 E7        30.06S
STEVENS POINT  NOT AVBL
WAUPACA        NOT AVBL
SHAWANO        NOT AVBL
CLINTONVILLE   DRIZZLE   55  55 100 CALM      30.08R
WAUTOMA        NOT AVBL
$$

WIZ038-039-048-051-291100-
FOX VALLEY

CITY           SKY/WX    TMP DP  RH WIND       PRES   REMARKS
NWS GREEN BAY  LGT RAIN  59  57  93 SE3       30.08F FOG
APPLETON       NOT AVBL
OSHKOSH        LGT RAIN  59  57  93 SE9       30.06S FOG
FOND DU LAC    RAIN      59  58  96 E5        30.07S FOG
$$

WIZ022-050-052-291100-
EAST CENTRAL WISCONSIN

CITY           SKY/WX    TMP DP  RH WIND       PRES   REMARKS
EPHRAIM        CLOUDY    58  56  93 CALM      30.09S
STURGEON BAY   MOCLDY    57  55  94 CALM      30.11S
MANITOWOC      NOT AVBL
SHEBOYGAN      LGT RAIN  57  56  96 NE9       30.08S FOG
$$

LMZ563-521-522-541>543-291100-
LAKESHORE

STATION/POSITION TIME  TEMP    WIND        PRES    VSBY  WAVE
                       AIR SEA DIR/SP/G                  HT/PER
                 (UTC) (F)     (DEG/KT/KT) (MB)    (MI)  (FT/S)
SHEBOYGAN LKSHOR 0900   53      20/ 11/ 11 1019.1F
ALGOMA MARINA    0914             CALM       N/A
NORTHPORT PIER   0900   61      CALM  /  3 1019.0R
N MID LAKE BUOY  0850   63 64  240/ 16/ 19 1018.8R         3/ 4
S GREEN BAY BUOY 0900   60 62  180/ 10/ 12 1020.0F
SISTER BAY LKSHO 0904   61     250/  5/  6   N/A
CHAMBERS ISLAND  0900   59     200/  4/ 13 1019.0R
$$


USA.gov is the U.S. government's official web portal to all federal, state and local government web resources and services.